FW6266 Weather Reports


time (UTC)temp
C
wind
direction
speed
KPH
gust
KPH
rain 1hr
cm
rain 24hr
cm
rain mn
cm
humidity
%
barometer
mb
20260503231552 16 0 0.0 9.7 0.00 0.00 0.00 44 1017.0
20260503230051 16 184 3.2 14.5 0.00 0.00 0.00 43 1017.0
20260503224550 16 284 4.8 14.5 0.00 0.00 0.00 43 1017.1
20260503223053 16 0 0.0 12.9 0.00 0.00 0.00 44 1017.2
20260503221554 16 0 3.2 12.9 0.00 0.00 0.00 45 1017.0
20260503220053 16 136 3.2 12.9 0.00 0.00 0.00 43 1017.0
20260503214551 17 162 1.6 16.1 0.00 0.00 0.00 42 1017.1
20260503213056 17 327 4.8 19.3 0.00 0.00 0.00 39 1017.1
20260503211550 17 327 11.3 19.3 0.00 0.00 0.00 39 1017.2
20260503204554 17 302 1.6 16.1 0.00 0.00 0.00 37 1017.3
20260503203101 17 246 6.4 22.5 0.00 0.00 0.00 36 1017.4
20260503201554 16 205 3.2 25.7 0.00 0.00 0.00 40 1017.8
20260503200057 16 80 8.0 20.9 0.00 0.00 0.00 43 1017.8
20260503194554 15 209 4.8 20.9 0.00 0.00 0.00 45 1018.0
20260503193101 15 79 4.8 14.5 0.00 0.00 0.00 44 1018.3
20260503191552 15 96 4.8 16.1 0.00 0.00 0.00 45 1018.7
20260503190054 15 121 8.0 24.1 0.00 0.00 0.00 45 1018.7
20260503184609 15 94 6.4 16.1 0.00 0.00 0.00 43 1018.8
20260503183109 15 101 4.8 17.7 0.00 0.00 0.00 43 1018.9
20260503181607 15 266 6.4 16.1 0.00 0.00 0.00 43 1019.2
20260503180058 15 194 3.2 14.5 0.00 0.00 0.00 42 1019.3
20260503174550 15 309 12.9 19.3 0.00 0.00 0.00 42 1019.2
20260503173100 15 260 1.6 12.9 0.00 0.00 0.00 42 1019.3
20260503171552 14 86 3.2 14.5 0.00 0.00 0.00 43 1019.5
20260503090104 -1 0 0.0 1.6 0.00 0.00 0.00 87 1018.4
20260503081622 -1 0 0.0 0.0 0.00 0.00 0.00 86 1017.9
20260503080110 -1 0 0.0 0.0 0.00 0.00 0.00 86 1017.5
20260503071555 0 0 0.0 0.0 0.00 0.00 0.00 85 1017.3
20260503060103 0 0 0.0 0.0 0.00 0.00 0.00 84 1017.1
20260503054554 0 0 0.0 0.0 0.00 0.00 0.00 84 1017.3
20260503053053 1 0 0.0 0.0 0.00 0.00 0.00 83 1017.3
20260503051552 1 0 0.0 0.0 0.00 0.00 0.00 83 1017.3
20260503050054 1 0 0.0 0.0 0.00 0.00 0.00 83 1017.1
20260503044559 1 0 0.0 0.0 0.00 0.00 0.00 81 1017.1
20260503043059 1 0 0.0 0.0 0.00 0.00 0.00 81 1017.0
20260503041553 2 0 0.0 0.0 0.00 0.00 0.00 80 1016.9
20260503040054 2 0 0.0 0.0 0.00 0.00 0.00 79 1016.7
20260503034555 2 0 0.0 0.0 0.00 0.00 0.00 77 1016.7
20260503033114 3 0 0.0 0.0 0.00 0.00 0.00 76 1016.6
20260503031559 3 0 0.0 0.0 0.00 0.00 0.00 74 1016.5
20260503024618 5 0 0.0 0.0 0.00 0.00 0.00 71 1016.2
20260503023055 5 0 0.0 0.0 0.00 0.00 0.00 70 1016.0
20260503021600 6 0 0.0 0.0 0.00 0.00 0.00 67 1015.9
20260503020052 6 0 0.0 4.8 0.00 0.00 0.00 65 1016.1
20260503014549 6 0 0.0 1.6 0.00 0.00 0.00 63 1015.8
20260503013054 7 0 0.0 4.8 0.00 0.00 0.00 60 1015.7
20260503011557 8 0 0.0 0.0 0.00 0.00 0.00 58 1015.5
20260503010055 8 0 0.0 4.8 0.00 0.00 0.00 54 1015.2
20260503004550 9 0 0.0 4.8 0.00 0.00 0.00 52 1015.0
20260503003106 10 28 0.0 3.2 0.00 0.00 0.00 49 1014.7
20260503001559 10 259 1.6 8.0 0.00 0.00 0.00 46 1014.4
20260503000107 11 288 1.6 11.3 0.00 0.00 0.00 44 1014.2
20260502234611 11 0 3.2 14.5 0.00 0.00 0.00 43 1014.0
20260502233108 11 319 1.6 20.9 0.00 0.00 0.00 44 1013.9